Regional Weather Roundup
Issued by NWS Cleveland, OH

Home | Current Version | Previous Version | Graphics & Text | Print | Product List | Glossary On
Versions: 1 2 3 4 5 6 7 8 9 10 11 12 13 14 15 16 17 18 19 20 21 22 23 24 25 26 27 28 29 30 31 32 33 34 35 36 37 38 39 40 41 42 43 44 45 46 47 48 49 50
000
ASUS41 KCLE 182300
RWRCLE
OHIO REGIONAL WEATHER ROUNDUP
NATIONAL WEATHER SERVICE WILMINGTON, OH
700 PM EDT FRI APR 18 2014

NOTE: "FAIR" INDICATES FEW OR NO CLOUDS BELOW 12,000 FEET WITH NO
SIGNIFICANT WEATHER AND/OR OBSTRUCTIONS TO VISIBILITY.

OHZ001>008-015>018-024>027-034-035-043-044-190000-
   NORTHWEST OHIO

CITY           SKY/WX    TMP DP  RH WIND       PRES   REMARKS
DEFIANCE       SUNNY     66  33  29 NW7       30.22S
FINDLAY        SUNNY     66  38  35 NW10      30.20S
TOLEDO EXPRESS SUNNY     65  34  31 NW8       30.21S
TOLEDO METCALF PTSUNNY   58  41  53 NE13      30.23R
LIMA           MOSUNNY   66  39  37 NW13      30.21S
$$

OHZ009>014-019>023-028>033-038-089-190000-
   NORTHEAST OHIO

CITY           SKY/WX    TMP DP  RH WIND       PRES   REMARKS
CLE-HOPKINS    MOSUNNY   60  40  47 N10       30.26S
CLE-LAKEFRONT  MOSUNNY   48  42  80 N8        30.23R
CUY CO. ARPT   MOSUNNY   59  41  51 N9        30.25S
LORAIN-ELYRIA  MOSUNNY   63  42  46 N9        30.23S
ASHTABULA      MOSUNNY   56  39  53 N10       30.25R
AKRON-CANTON   PTSUNNY   66  39  37 N5        30.22S
WOOSTER        NOT AVBL
MANSFIELD      PTSUNNY   63  39  41 W6        30.22F
YOUNGSTOWN     PTSUNNY   60  38  43 NW12      30.22S
$$

OHZ042-051>053-060>062-070>072-077>081-190000-
  SOUTHWEST OHIO

CITY           SKY/WX    TMP DP  RH WIND       PRES   REMARKS
CINC-COVINGTON PTSUNNY   70  35  27 N8        30.20F
CINC-LUNKEN    PTSUNNY   68  37  32 E3        30.20F
HAMILTON       PTSUNNY   70  37  29 CALM      30.21F
DAYTON         NOT AVBL
WRIGHT-PAT AFB PTSUNNY   67  37  33 NW6       30.21F
DAYTON GENERAL PTSUNNY   68  37  32 NW7       30.20F
WILMINGTON     PTSUNNY   66  36  32 NE5       30.21F
$$

OHZ036-037-039>041-045>050-054>059-063>069-073>076-082>088-190000-
  CENTRAL AND SOUTHEAST OHIO

CITY           SKY/WX    TMP DP  RH WIND       PRES   REMARKS
COLUMBUS       PTSUNNY   68  36  30 W9        30.21F
OSU AIRPORT    PTSUNNY   66  36  32 NW9       30.21F
BOLTON FIELD   MOSUNNY   64  39  39 W6        30.22S
RICKENBACK AFB NOT AVBL
NEWARK         PTSUNNY   66  35  31 N6        30.21S
MARION         MOSUNNY   64  37  36 VRB3      30.21F
LANCASTER      PTSUNNY   67  36  31 NW6       30.21F
ZANESVILLE     CLOUDY    66  34  30 W8        30.20F
NEW PHILLY     CLOUDY    65  35  33 NW6       30.21S
$$



USA.gov is the U.S. government's official web portal to all federal, state and local government web resources and services.